EHI
0 0 0 0 0 0 0 0 0 0 0 0 0 0 0 0 0 0 0 0 0 0 0 0 0 0 0 0 0 0 0 0 0 0 0 0 0 0 0 0 0 0 0 0
0 0 0 0 0 0 0 0 0 0 0 0 0 0 0 0 0 0 0 0 0 0 0 0 0 0 0 0 0 0 0 0 0 0 0 0 0 0 0 0 0 0 0 0
0 0 0 0 0 0 0 0 0 0 0 0 0 0 0 0 0 0 0 0 0 0 0 0 0 0 0 0 0 0 0 0 0 0 0 0 0 0 0 0 0 0 0 0
0 0 0 0 0 0 0 0 0 0 0 0 0 0 0 0 0 0 0 0 0 0 0 0 0 0 0 0 0 0 0 0 0 0 0 0 0 0 0 0 0 0 0 0
0 0 0 0 0 0 0 0 0 0 0 0 0 0 0 0 0 0 0 0 0 0 0 0 0 0 0 0 0 0 0 0 0 0 0 0 0 0 0 0 0 0 0 0
0 0 0 0 0 0 0 0 0 0 0 0 0 0 0 0 0 0 0 0 0 0 0 0 0 0 0 0 0 0 0 0 0 0 0 0 0 0 0 0 0 0 0 0
0 0 0 0 0 0 0 0 0 0 0 0 0 0 0 0 0 0 0 0 0 0 0 0 0 0 0 0 0 0 0 0 0 0 0 0 0 0 0 0 0 0 0 0
0 0 0 0 0 0 0 0 0 0 0 0 0 0 0 0 0 0 0 0 0 0 0 0 0 0 0 0 0 0 0 0 0 0 0 0 0 0 0 0 0 0 0 0
0 0 0 0 0 0 0 0 0 0 0 0 0 0 0 0 0 0 0 0 0 0 0 0 0 0 0 0 0 0 0 0 0 0 0 0 0 0 0 0 0 0 0 0
0 0 0 0 0 0 0 0 0 0 0 0 0 0 0 0 0 0 0 0 0 0 0 0 0 0 0 0 0 0 0 0 0 0 0 0 0 0 0 0 0 0 0 0
0 0 0 0 0 0 0 0 0 0 0 0 0 0 0 0 0 0 0 0 0 0 0 0 0 0 0 0 0 0 0 0 0 0 0 0 0 0 0 0 0 0 0 0
0 0 0 0 0 0 0 0 0 0 0 0 0 0 0 0 0 0 0 0 0 0 0 0 0 0 0 0 0 0 0 0 0 0 0 0 0 0 0 0 0 0 0 0
0 0 0 0 0 0 0 0 0 0 0 0 0 0 0 0 0 0 0 0 0 0 0 0 0 0 0 0 0 0 0 0 0 0 0 0 0 0 0 0 0 0 0 0
0 0 0 0 0 0 0 0 0 0 0 0 0 0 0 0 0 0 0 0 0 0 0 0 0 0 0 0 0 0 0 0 0 0 0 0 0 0 0 0 0 0 0 0
0 0 0 0 0 0 0 0 0 0 0 0 0 0 0 0 0 0 0 0 0 0 0 0 0 0 0 0 0 0 0 0 0 0 0 0 0 0 0 0 0 0 0 0
0 0 0 0 0 0 0 0 0 0 0 0 0 0 0 0 0 0 0 0 0 0 0 0 0 0 0 0 0 0 0 0 0 0 0 0 0 0 0 0 0 0 0 0
0 0 0 0 0 0 0 0 0 0 0 0 0 0 0 0 0 0 0 0 0 0 0 0 0 0 0 0 0 0 0 0 0 0 0 0 0 0 0 0 0 0 0 0
0 0 0 0 0 0 0 0 0 0 0 0 0 0 0 0 0 0 0 0 0 0 0 0 0 0 0 0 0 0 0 0 0 0 0 0 0 0 0 0 0 0 0 0
0 0 0 0 0 0 0 0 0 0 0 0 0 0 0 0 0 0 0 0 0 0 0 0 0 0 0 0 0 0 0 0 0 0 0 0 0 0 0 0 0 0 0 0
0 0 0 0 0 0 0 0 0 0 0 0 0 0 0 0 0 0 0 0 0 0 0 0 0 0 0 0 0 0 0 0 0 0 0 0 0 0 0 0 0 0 0 0
0 0 0 0 0 0 0 0 0 0 0 0 0 0 0 0 0 0 0 0 0 0 0 0 0 0 0 0 0 0 0 0 0 0 0 0 0 0 0 0 0 0 0 0
0 0 0 0 0 0 0 0 0 0 0 0 0 0 0 0 0 0 0 0 0 0 0 0 0 0 0 0 0 0 0 0 0 0 0 0 0 0 0 0 0 0 0 0
0 0 0 0 0 0 0 0 0 0 0 0 0 0 0 0 0 0 0 0 0 0 0 0 0 0 0 0 0 0 0 0 0 0 0 0 0 0 0 0 0 0 0 0
0 0 0 0 0 0 0 0 0 0 0 0 0 0 0 0 0 0 0 0 0 0 0 0 0 0 0 0 0 0 0 0 0 0 0 0 0 0 0 0 0 0 0 0
0 0 0 0 0 0 0 0 0 0 0 0 0 0 0 0 0 0 0 0 0 0 0 0 0 0 0 0 0 0 0 0 0 0 0 0 0 0 0 0 0 0 0 0
0 0 0 0 0 0 0 0 0 0 0 0 0 0 0 0 0 0 0 0 0 0 0 0 0 0 0 0 0 0 0 0 0 0 0 0 0 0 0 0 0 0 0 0
0 0 0 0 0 0 0 0 0 0 0 0 0 0 0 0 0 0 0 0 0 0 0 0 0 0 0 0 0 0 0 0 0 0 0 0 0 0 0 0 0 0 0 0
Wind_Speed
5 9 8 6 9 10 7 12 14 15 16 17 11 10 11 15 18 17 15 12 11 13 12 10 8 7 7 7 5 9 10 8 5 3 4 2 1 2 3 4 4 5 3 4
6 6 4 7 8 6 7 11 11 12 14 12 16 10 11 14 17 21 18 12 8 8 9 11 10 8 7 6 7 6 5 5 3 3 3 1 1 3 4 4 3 4 7 7
6 8 10 4 1 6 13 8 7 12 17 16 14 14 18 16 20 22 19 16 10 8 5 3 4 6 5 5 7 5 4 4 2 2 1 2 4 4 4 3 4 5 6 7
5 7 3 4 7 4 6 11 8 15 16 10 16 19 21 18 18 17 19 19 14 9 8 5 3 1 2 5 5 4 4 5 4 4 4 3 4 4 4 5 5 5 6 8
3 3 10 10 3 2 6 22 14 12 12 22 24 24 25 19 15 17 18 17 16 7 3 2 2 3 5 6 6 6 6 6 5 4 4 3 5 5 4 4 5 5 6 7
1 2 8 8 4 2 7 17 4 7 23 28 28 24 24 23 22 22 21 16 11 2 6 5 4 4 5 5 5 5 6 5 5 4 3 5 5 3 4 5 5 5 5 6
4 6 11 11 7 9 10 19 21 26 27 30 26 26 29 28 27 23 21 13 2 6 6 6 4 5 5 5 4 5 6 5 5 5 4 5 4 4 4 4 4 4 4 4
2 4 10 4 12 8 21 26 26 25 25 27 27 27 27 25 23 21 18 3 6 7 7 6 4 5 6 5 4 5 4 5 5 5 5 4 4 5 4 4 3 3 3 3
7 11 11 14 17 20 21 23 22 24 24 24 26 29 29 23 20 17 11 3 7 9 9 7 6 6 6 4 5 5 4 4 4 4 5 4 4 4 3 3 3 2 2 2
7 14 14 17 20 17 14 17 22 22 22 22 24 26 23 18 14 11 1 7 8 9 9 7 7 6 5 5 6 4 4 4 4 5 5 5 3 2 2 2 3 3 3 3
9 14 16 17 16 16 16 19 21 22 21 21 19 19 17 14 10 4 6 7 7 8 9 8 7 6 7 6 6 4 3 3 4 5 4 3 3 3 3 2 2 2 2 3
9 12 12 17 16 14 16 19 21 20 19 14 16 16 15 12 12 11 10 10 11 11 10 7 6 6 6 6 5 4 3 4 4 3 3 3 3 4 6 6 8 7 8 7
9 9 11 13 11 13 16 18 19 16 15 15 15 15 15 13 13 14 13 12 11 10 8 7 7 7 7 7 7 6 5 4 5 5 4 3 3 3 4 6 7 9 11 12
5 4 9 8 12 14 15 15 14 14 14 14 13 13 13 13 13 13 12 11 10 9 8 8 8 8 8 7 7 6 6 7 5 3 3 3 3 3 4 5 6 6 10 12
2 1 6 9 9 11 12 12 12 11 12 12 12 11 11 11 11 10 8 8 8 8 8 8 8 8 7 7 7 7 6 5 4 2 4 5 4 4 4 5 5 6 7 8
7 4 3 6 8 10 10 12 11 10 10 9 9 8 8 8 8 8 9 10 9 8 8 7 7 7 7 7 6 5 5 9 9 6 5 5 4 5 5 5 5 6 6 6
5 7 8 10 9 9 8 9 9 9 9 9 9 8 7 6 7 8 8 7 6 5 6 6 8 8 8 8 6 5 5 6 10 6 4 4 4 4 4 4 5 6 6 7
3 4 4 5 6 7 7 7 7 7 7 7 7 7 7 8 7 6 6 6 6 6 6 8 9 6 6 7 6 4 5 5 6 6 6 6 6 5 5 5 6 7 7 9
1 2 3 4 4 5 5 5 6 6 6 6 6 6 5 6 5 5 6 6 7 7 9 10 12 10 8 11 9 6 6 6 6 6 6 7 7 6 6 6 7 7 7 8
1 1 2 3 4 4 4 4 4 5 5 5 5 5 6 6 6 6 6 5 5 6 9 10 10 7 6 9 12 7 6 6 6 6 7 7 7 7 8 9 10 9 9 8
1 1 1 2 3 4 5 5 4 4 5 5 4 4 5 5 6 6 5 7 9 10 11 14 11 7 6 8 8 6 6 6 6 6 7 7 8 9 9 9 10 10 9 9
2 2 2 3 3 3 4 4 4 4 4 4 4 5 5 6 7 6 4 5 9 12 9 8 9 10 12 11 6 6 6 7 6 6 6 7 7 8 9 9 9 10 10 10
2 3 4 4 3 3 3 3 4 3 3 4 5 5 5 6 5 6 7 9 9 11 9 9 13 16 16 8 6 6 7 7 7 7 6 7 7 7 8 9 10 9 9 10
4 5 5 4 4 4 2 2 3 3 3 3 4 4 5 5 5 5 6 11 14 13 9 11 14 16 13 6 6 6 7 7 7 6 6 7 7 7 8 9 9 9 9 11
6 5 5 4 4 3 1 2 3 3 3 3 4 4 4 5 6 6 6 8 12 11 8 12 16 15 9 6 6 6 7 6 7 7 7 7 7 8 8 9 9 10 9 9
5 4 3 3 3 3 1 0 1 2 2 2 3 4 5 5 6 6 6 8 9 10 8 7 9 9 7 7 7 7 7 8 9 8 8 7 8 8 9 9 9 9 7 7
6 5 4 3 2 2 1 2 2 2 3 2 3 4 5 6 7 7 7 7 7 7 7 7 8 9 8 8 8 8 7 8 9 10 9 8 8 9 9 10 9 8 7 7
Wind_Direction
285 284 277 275 273 274 263 268 276 284 286 294 300 287 286 305 311 311 309 310 320 321 327 337 5 21 51 77 90 92 98 113 134 136 101 85 10 16 18 15 357 344 8 22
289 280 319 288 276 284 288 284 282 286 285 286 300 285 292 315 310 304 304 296 289 309 336 348 358 9 22 44 54 69 98 112 144 148 117 100 23 21 10 4 12 46 58 44
301 324 325 313 11 318 304 285 263 286 291 305 314 305 298 309 305 299 304 298 270 255 260 278 339 352 1 38 51 54 79 89 69 45 26 27 36 37 16 17 45 69 71 55
291 339 311 276 298 274 277 291 279 280 290 295 306 302 294 296 291 293 302 302 280 244 229 236 232 183 35 31 37 40 52 48 27 11 360 23 55 45 39 49 58 68 58 57
316 302 286 294 302 13 312 299 295 281 296 307 307 303 293 290 283 293 296 297 289 246 198 132 45 30 37 39 33 20 13 17 10 7 359 48 66 41 46 60 64 67 59 56
120 278 277 273 298 316 300 291 277 293 307 308 309 302 299 303 298 295 298 298 291 147 123 113 92 88 78 48 29 7 353 358 7 2 23 82 79 64 66 75 75 76 68 55
220 239 263 270 300 329 318 303 313 309 312 312 304 295 297 299 297 293 290 296 69 109 113 114 121 113 94 70 22 343 346 7 16 14 49 79 85 70 62 70 76 77 77 60
202 247 269 282 322 299 294 301 306 312 314 307 302 299 298 296 294 290 287 277 122 113 103 87 80 91 83 55 359 344 11 25 30 36 44 60 74 70 52 50 57 55 68 47
211 234 262 291 291 288 296 304 315 312 309 306 303 302 302 300 296 293 281 145 127 121 113 93 73 67 67 20 359 357 28 34 41 49 44 41 54 59 50 39 42 28 33 28
269 269 273 284 290 301 319 322 313 309 308 308 306 310 320 321 310 306 26 124 131 123 108 90 74 61 37 13 3 6 25 28 37 37 39 27 26 51 51 23 21 18 354 338
260 274 287 284 305 335 335 319 315 315 314 314 321 323 327 324 325 31 97 97 89 86 86 78 62 44 24 11 2 13 22 27 42 45 28 16 17 18 16 355 357 358 313 297
269 297 304 301 324 344 331 323 321 321 324 343 350 350 6 14 21 42 52 61 69 71 72 65 52 39 21 4 11 15 14 25 32 50 6 12 18 8 352 348 349 344 329 317
269 291 292 303 325 340 329 330 336 354 9 2 6 13 26 32 38 46 47 48 53 59 58 50 42 33 15 7 17 15 358 22 25 25 359 350 8 359 328 334 338 336 334 329
264 305 308 327 326 334 336 339 348 10 14 15 15 22 32 38 40 40 40 41 44 45 43 41 38 29 13 6 16 6 357 9 21 357 326 331 354 329 318 326 332 333 332 326
313 72 285 300 324 343 348 350 357 11 13 17 22 26 31 37 38 35 34 37 41 43 37 32 27 21 6 1 6 1 356 350 349 313 331 343 343 330 329 332 330 323 320 320
320 314 319 336 349 350 354 1 3 7 10 10 16 23 27 32 35 34 31 30 36 32 21 12 3 360 357 352 343 331 328 338 347 354 342 334 333 332 331 327 318 311 306 304
328 326 336 339 346 347 359 2 2 2 2 4 4 6 13 24 33 33 28 22 22 16 3 352 337 340 348 343 333 326 327 328 335 339 327 325 320 314 308 303 304 300 295 297
243 279 320 332 337 340 355 5 9 10 2 358 6 14 24 30 24 9 359 355 356 351 350 341 329 347 338 323 321 340 338 334 334 335 335 329 322 323 315 304 295 296 300 304
295 339 346 354 359 352 2 3 6 6 358 10 21 20 20 18 1 349 350 359 357 344 330 323 341 356 343 342 3 6 351 344 340 338 332 328 332 323 311 308 308 305 303 303
151 60 21 35 38 29 14 2 15 21 11 13 14 12 14 1 349 347 351 345 323 304 315 334 348 342 335 353 5 360 347 343 339 335 331 335 328 320 319 318 316 313 309 306
172 110 70 77 65 42 31 15 25 26 12 15 26 14 354 340 338 338 350 348 331 338 354 346 339 339 351 13 6 352 346 341 336 330 327 328 327 327 325 322 320 316 313 311
184 174 142 118 111 68 31 20 30 25 17 15 12 357 352 349 344 342 337 321 323 351 1 335 327 3 20 15 356 344 339 335 330 326 326 326 326 325 324 323 321 320 317 311
167 136 121 118 119 101 61 34 26 20 16 2 354 349 345 331 331 351 349 341 341 4 0 330 346 16 21 4 342 336 332 329 323 319 321 321 317 313 313 317 321 321 315 311
131 117 113 114 114 108 77 1 343 330 321 322 332 332 329 334 344 4 348 346 350 8 357 339 355 13 12 344 332 331 327 325 317 313 316 318 313 309 311 315 320 323 325 325
121 123 134 139 131 134 165 307 317 322 348 353 349 343 342 350 351 355 349 349 351 360 349 346 352 355 351 330 327 325 320 316 315 318 312 309 311 312 313 316 318 324 330 325
129 135 137 134 142 158 190 204 29 11 15 7 360 352 359 1 359 360 352 354 348 349 343 333 334 337 332 327 330 323 318 318 320 316 313 311 306 305 307 310 312 311 310 310
122 131 125 114 124 168 167 111 72 30 19 20 9 5 8 3 1 0 352 346 343 337 332 327 328 335 335 332 328 323 320 316 315 316 314 309 302 298 297 297 297 294 288 283